Ogallala, NE

10:09 PM MDT on March 25, 2017 (GMT -0600)
Searle

Weather History for KOGA - November, 2013

Change the Weather History Date:

Friday, November 15, 2013

  Actual Average Record
Temperature  
Mean Temperature 48 °F -  
Max Temperature 62 °F 49 °F 75 °F (1990)
Min Temperature 35 °F 22 °F 1 °F (2014)
Degree Days  
Heating Degree Days 16    
Moisture  
Dew Point 33 °F    
Average Humidity 64    
Maximum Humidity 88    
Minimum Humidity 30    
Precipitation  
Precipitation 0.00 in - - ()
Sea Level Pressure  
Sea Level Pressure 29.60 in    
Wind  
Wind Speed 5 mph (South)    
Max Wind Speed 17 mph    
Max Gust Speed 22 mph    
Visibility 10 miles    
Events      
Averages and records for this station are not official NWS values.
T = Trace of Precipitation, MM = Missing Value Source: NWS Daily Summary

Daily Weather History Graph

Daily Weather History Graph

Search for Another Location

Airport or City:

Trip Planner

Search our weather history database for the weather conditions in past years. The results will help you decide how hot, cold, wet, or windy it might be!

Date:

Astronomy

Nov. 15, 2013 Rise Set
Actual Time 6:35 AM MST 4:27 PM MST
Civil Twilight 6:05 AM MST 4:57 PM MST
Nautical Twilight 5:32 AM MST 5:30 PM MST
Astronomical Twilight 4:59 AM MST 6:03 PM MST
Moon 3:26 PM MST (11/15) 4:32 AM MST (11/15)
Length of Visible Light 10h 51m
Length of Day
9h 52m
Waxing Gibbous, 97% of the Moon is Illuminated
Nov 15
Waxing Gibbous
Nov 17
Full
Nov 25
Last Quarter
Dec 2
New
Dec 9
First Quarter

Hourly Weather History & Observations

Time (MST) Temp. Windchill Dew Point Humidity Pressure Visibility Wind Dir Wind Speed Gust Speed Precip Events Conditions
12:15 AM 36.9 °F 34.3 °F 31.6 °F 81% 29.83 in 10.0 mi WSW 3.5 mph - N/A   Clear
12:35 AM 36.1 °F 33.5 °F 31.6 °F 84% 29.81 in 10.0 mi West 3.5 mph - N/A   Clear
12:55 AM 36.9 °F 32.2 °F 32.0 °F 83% 29.81 in 10.0 mi West 5.8 mph - N/A   Clear
1:15 AM 36.7 °F 34.1 °F 32.0 °F 83% 29.81 in 10.0 mi SW 3.5 mph - N/A   Clear
1:35 AM 36.9 °F - 32.0 °F 83% 29.80 in 10.0 mi Calm Calm - N/A   Clear
1:55 AM 35.6 °F - 31.6 °F 85% 29.80 in 10.0 mi Calm Calm - N/A   Clear
2:15 AM 37.0 °F - 32.2 °F 83% 29.79 in 10.0 mi Calm Calm - N/A   Clear
2:35 AM 36.7 °F - 32.0 °F 83% 29.79 in 10.0 mi Calm Calm - N/A   Clear
2:55 AM 36.9 °F - 32.0 °F 83% 29.78 in 10.0 mi Calm Calm - N/A   Clear
3:15 AM 36.5 °F - 32.0 °F 84% 29.75 in 10.0 mi Calm Calm - N/A   Clear
3:35 AM 37.8 °F 33.3 °F 32.7 °F 82% 29.75 in 10.0 mi South 5.8 mph - N/A   Clear
3:55 AM 38.5 °F 32.7 °F 32.9 °F 80% 29.75 in 10.0 mi SSW 8.1 mph - N/A   Clear
4:15 AM 36.9 °F 32.2 °F 32.0 °F 83% 29.74 in 10.0 mi SSW 5.8 mph - N/A   Clear
4:35 AM 35.8 °F - 32.0 °F 86% 29.74 in 10.0 mi Calm Calm - N/A   Clear
4:55 AM 36.9 °F 31.4 °F 33.1 °F 86% 29.73 in 10.0 mi South 6.9 mph - N/A   Clear
5:15 AM 37.4 °F 30.3 °F 33.4 °F 86% 29.73 in 10.0 mi South 10.4 mph - N/A   Clear
5:35 AM 37.2 °F 30.6 °F 33.3 °F 86% 29.72 in 10.0 mi South 9.2 mph - N/A   Clear
5:55 AM 37.4 °F 30.8 °F 33.4 °F 86% 29.72 in 10.0 mi South 9.2 mph - N/A   Clear
6:15 AM 37.4 °F 31.4 °F 33.3 °F 85% 29.71 in 10.0 mi South 8.1 mph - N/A   Clear
6:35 AM 36.7 °F 34.1 °F 32.9 °F 86% 29.71 in 10.0 mi SSW 3.5 mph - N/A   Clear
6:55 AM 37.4 °F 34.9 °F 33.3 °F 85% 29.72 in 10.0 mi South 3.5 mph - N/A   Clear
7:15 AM 37.0 °F 33.3 °F 33.3 °F 86% 29.73 in 10.0 mi SSE 4.6 mph - N/A   Clear
7:35 AM 37.0 °F - 33.8 °F 88% 29.72 in 10.0 mi Calm Calm - N/A   Clear
7:55 AM 38.1 °F - 34.7 °F 87% 29.73 in 10.0 mi Calm Calm - N/A   Clear
8:15 AM 38.8 °F 34.6 °F 34.7 °F 85% 29.72 in 10.0 mi SSE 5.8 mph - N/A   Clear
8:35 AM 40.8 °F - 35.6 °F 82% 29.72 in 10.0 mi Calm Calm - N/A   Clear
8:55 AM 43.0 °F 38.2 °F 36.5 °F 78% 29.71 in 10.0 mi SSE 8.1 mph - N/A   Clear
9:15 AM 45.7 °F 40.6 °F 37.8 °F 74% 29.69 in 10.0 mi South 10.4 mph - N/A   Clear
9:35 AM 47.8 °F - 38.3 °F 70% 29.68 in 10.0 mi South 12.7 mph 18.4 mph N/A   Clear
9:55 AM 50.0 °F - 38.3 °F 64% 29.68 in 10.0 mi SSW 13.8 mph 21.9 mph N/A   Clear
10:15 AM 51.1 °F - 38.3 °F 62% 29.67 in 10.0 mi South 17.3 mph - N/A   Clear
10:35 AM 52.2 °F - 37.8 °F 58% 29.66 in 10.0 mi South 16.1 mph 21.9 mph N/A   Clear
10:55 AM 52.7 °F - 37.6 °F 56% 29.64 in 10.0 mi South 13.8 mph 19.6 mph N/A   Clear
11:15 AM 54.5 °F - 38.1 °F 54% 29.62 in 10.0 mi South 13.8 mph 18.4 mph N/A   Clear
11:35 AM 56.1 °F - 37.8 °F 50% 29.61 in 10.0 mi SSW 12.7 mph 18.4 mph N/A   Clear
11:55 AM 57.6 °F - 37.4 °F 47% 29.59 in 10.0 mi SSW 10.4 mph 16.1 mph N/A   Clear
12:15 PM 59.2 °F - 36.3 °F 43% 29.57 in 10.0 mi SSW 9.2 mph - N/A   Clear
12:35 PM 60.4 °F - 34.7 °F 38% 29.56 in 10.0 mi South 9.2 mph - N/A   Clear
12:55 PM 61.3 °F - 33.1 °F 35% 29.55 in 7.0 mi SSW 5.8 mph - N/A   Clear
1:15 PM 62.1 °F - 32.0 °F 32% 29.54 in 10.0 mi WSW 5.8 mph - N/A   Clear
1:35 PM 61.9 °F - 31.3 °F 32% 29.53 in 10.0 mi SW 3.5 mph - N/A   Clear
1:55 PM 62.6 °F - 30.9 °F 30% 29.53 in 10.0 mi SW 4.6 mph - N/A   Clear
2:15 PM 62.8 °F - 31.1 °F 30% 29.53 in 10.0 mi SSW 6.9 mph - N/A   Clear
2:35 PM 62.6 °F - 30.2 °F 30% 29.52 in 10.0 mi SSW 5.8 mph - N/A   Clear
2:55 PM 62.4 °F - 30.9 °F 31% 29.52 in 10.0 mi SSW 5.8 mph - N/A   Clear
3:15 PM 62.1 °F - 30.7 °F 31% 29.52 in 10.0 mi South 5.8 mph - N/A   Clear
3:35 PM 61.5 °F - 30.4 °F 31% 29.51 in 10.0 mi South 4.6 mph - N/A   Clear
3:55 PM 59.9 °F - 30.0 °F 32% 29.51 in 10.0 mi SSE 4.6 mph - N/A   Clear
4:15 PM 57.9 °F - 30.0 °F 35% 29.50 in 10.0 mi SE 3.5 mph - N/A   Clear
4:35 PM 54.5 °F - 31.8 °F 42% 29.50 in 10.0 mi SE 4.6 mph - N/A   Clear
4:55 PM 50.9 °F - 31.1 °F 47% 29.50 in 10.0 mi SE 4.6 mph - N/A   Clear
5:15 PM 48.4 °F - 32.0 °F 53% 29.49 in 10.0 mi ESE 5.8 mph - N/A   Clear
5:35 PM 47.8 °F - 32.0 °F 54% 29.49 in 10.0 mi ESE 3.5 mph - N/A   Clear
5:55 PM 47.5 °F - 32.0 °F 55% 29.49 in 10.0 mi ESE 5.8 mph - N/A   Clear
6:15 PM 46.8 °F - 32.0 °F 57% 29.49 in 10.0 mi East 5.8 mph - N/A   Clear
6:35 PM 47.5 °F - 32.0 °F 55% 29.49 in 10.0 mi ESE 4.6 mph - N/A   Clear
6:55 PM 45.9 °F 42.9 °F 32.0 °F 58% 29.49 in 10.0 mi ESE 5.8 mph - N/A   Clear
7:15 PM 46.9 °F - 32.0 °F 56% 29.48 in 10.0 mi ESE 4.6 mph - N/A   Clear
7:35 PM 46.6 °F - 33.1 °F 59% 29.47 in 10.0 mi East 8.1 mph - N/A   Clear
7:55 PM 45.9 °F - 33.8 °F 63% 29.46 in 10.0 mi Calm Calm - N/A   Clear
8:15 PM 45.0 °F 40.6 °F 33.8 °F 65% 29.46 in 10.0 mi East 8.1 mph - N/A   Clear
8:35 PM 46.6 °F - 33.8 °F 61% 29.45 in 10.0 mi East 8.1 mph - N/A   Clear
8:55 PM 44.8 °F - 34.0 °F 66% 29.45 in 10.0 mi Calm Calm - N/A   Clear
9:15 PM 45.1 °F 43.7 °F 33.8 °F 65% 29.44 in 10.0 mi East 3.5 mph - N/A   Clear
9:35 PM 46.8 °F - 32.4 °F 57% 29.43 in 10.0 mi SE 5.8 mph - N/A   Clear
9:55 PM 47.8 °F - 32.0 °F 54% 29.43 in 10.0 mi South 3.5 mph - N/A   Clear
10:15 PM 45.9 °F 44.6 °F 32.0 °F 58% 29.43 in 10.0 mi NW 3.5 mph - N/A   Clear
10:35 PM 43.3 °F 41.7 °F 31.6 °F 63% 29.43 in 10.0 mi West 3.5 mph - N/A   Clear
10:55 PM 39.7 °F - 30.2 °F 69% 29.41 in 10.0 mi Calm Calm - N/A   Clear
11:15 PM 39.4 °F 33.8 °F 31.6 °F 74% 29.41 in 10.0 mi WNW 8.1 mph - N/A   Clear
11:35 PM 35.8 °F 33.0 °F 30.0 °F 80% 29.41 in 10.0 mi NNW 3.5 mph - N/A   Clear
11:55 PM 36.0 °F - 30.7 °F 81% 29.41 in 10.0 mi Calm Calm - N/A   Clear